[[{"header":{"parameterUnit":"m.s-1","parameterCategory":1,"la1":30.2991,"la2":30.254,"lo1":-89.0895,"lo2":-89.0444,"dy":0.0017,"dx":0.0017,"nx":28,"ny":28,"refTime":"2024-11-24T09:00:00:Z","depth":0,"parameterNumber":2,"parameterNumberName":"U-component_of_WINDS"},"data":[0,0,0,0,0,0,0,0,0,0,0,0,0,0,0,0,0,0,0,0,0,0,0,0,0,0,0,0,0,0,0,0,0,0,0,0,0,0,0,0,0,0,0,0,0,0,0,0,0,0,0,0,0,0,0,0,0,0,2.7486,2.7488,0,2.771,2.7712,2.7715,2.7775,2.7774,2.7773,2.7771,2.8001,2.8008,2.8015,0,0,0,0,0,0,0,0,0,0,0,0,0,2.7108,2.7114,2.7485,2.7488,2.7491,2.771,2.7713,2.7716,2.7775,2.7774,2.7772,2.7771,2.7998,2.8007,2.8016,0,0,0,0,0,0,0,0,0,0,0,0,0,2.7296,2.7116,2.7485,2.7547,2.7555,2.7709,2.7713,2.7717,2.7776,2.7774,2.7772,2.777,2.7996,2.8006,2.8017,2.8125,0,0,2.8051,2.8056,0,0,0,0,0,0,0,0,2.7285,2.731,2.7535,2.7543,2.7552,2.7713,2.7664,2.7853,2.7776,2.7692,2.7771,2.7769,2.7906,2.7925,2.7971,2.8136,2.8146,2.8052,2.8058,2.8063,2.8066,0,0,0,0,0,0,0,2.7272,2.73,2.7574,2.7538,2.7549,2.7564,2.7588,2.77,2.7808,2.7699,2.7704,2.773,2.7911,2.796,2.7977,2.8149,2.8051,2.8061,2.8068,2.8072,2.8414,2.8417,0,0,0,0,0,0,2.7248,2.7289,2.7567,2.7581,2.7411,2.7572,2.7599,2.7663,2.7807,2.7827,2.7731,2.7732,2.7943,2.7964,2.7985,2.8122,2.8063,2.8073,2.808,2.8412,2.8415,2.8417,0,0,0,0,0,0,2.724,2.7272,2.7558,2.7436,2.7474,2.7581,2.7652,2.7669,2.7718,2.7831,2.785,2.7762,2.7942,2.797,2.809,2.8131,2.8078,2.8088,2.8409,2.8413,2.8416,2.8396,0,0,0,0,0,0,2.7229,2.7269,2.7311,2.7437,2.748,2.7659,2.7654,2.7674,2.7737,2.774,2.7865,2.7884,2.7942,2.8073,2.8101,2.8145,2.8097,2.8406,2.8411,2.8415,2.8394,2.8399,2.8403,0,0,0,0,0,2.7215,2.7297,2.7313,2.7347,2.7535,2.7661,2.7686,2.7752,2.774,2.7784,2.7856,2.788,2.8121,2.8085,2.8117,2.8165,2.8403,2.8409,2.8415,2.8391,2.8398,2.8403,0,0,0,0,0,0,2.7173,2.7314,2.7334,2.7459,2.7548,2.7671,2.7728,2.7756,2.785,2.7849,2.7926,2.7954,2.8069,2.8129,2.8086,2.8277,2.8263,2.8275,2.8234,2.8241,2.8246,2.823,2.8106,0,0,0,0,0,2.7178,2.7269,2.7387,2.7486,2.7529,2.7621,2.7678,2.7721,2.7816,2.7854,2.7935,2.8026,2.8123,2.8185,2.828,2.8402,2.843,2.845,2.8455,2.8458,2.8468,2.8538,2.8549,2.8436,2.8436,2.8435,0,0,2.719,2.7278,2.7331,2.748,2.7554,2.7646,2.7652,2.7749,2.7819,2.7869,2.7988,2.805,2.8157,2.8279,2.8336,2.8332,2.8506,2.8465,2.8467,2.8476,2.8545,2.8555,2.8565,2.8439,2.8439,2.8438,0,0,2.726,2.7335,2.7426,2.75,2.7611,2.7672,2.7693,2.7813,2.7856,2.7977,2.8016,2.8099,2.8264,2.8339,2.8398,2.8495,2.8521,2.8523,2.8548,2.8615,2.8624,2.8632,2.8668,2.868,2.8533,2.8533,2.8533,0,2.726,2.7401,2.7469,2.7565,2.7629,2.7678,2.7771,2.7839,2.7976,2.8019,2.8012,2.822,2.8295,2.8435,2.8459,2.8505,2.8532,2.851,2.8617,2.8626,2.8635,2.867,2.8683,2.8532,2.8532,2.8532,2.8532,0,2.7397,2.7494,2.7554,2.7686,2.7756,2.785,2.7931,2.7995,2.8031,2.8092,2.8214,2.8306,2.842,2.8456,2.8493,2.8602,2.8596,2.8602,2.859,2.8645,2.8679,2.8692,2.8532,2.8532,2.8532,2.8532,0,0,2.7448,2.7615,2.7636,2.7697,2.7823,2.7899,2.7995,2.8107,2.8161,2.8253,2.8335,2.8473,2.8479,2.8547,2.8591,2.865,2.8722,2.8649,2.8653,2.8661,2.8849,2.8845,2.8859,2.8739,2.8741,2.8744,2.884,0,2.7535,2.7708,2.7771,2.7913,2.8004,2.8052,2.8135,2.8221,2.828,2.8365,2.843,2.8527,2.8528,2.8569,2.8629,2.87,2.8761,2.8694,2.8817,2.8821,2.879,2.8877,2.8873,2.8959,2.8854,2.8856,2.8858,0,2.7659,2.7753,2.7905,2.802,2.806,2.8134,2.8242,2.8323,2.8422,2.8461,2.8535,2.8576,2.8678,2.8657,2.8799,2.8752,2.8805,2.8848,2.8853,2.8868,2.8844,2.8896,2.8989,2.9002,2.8879,2.8878,2.8876,0,2.7683,2.7847,2.7959,2.8009,2.8146,2.8197,2.8256,2.8353,2.8417,2.8511,2.8553,2.8657,2.8714,2.8794,2.8862,2.884,2.8997,2.8982,2.9033,2.9031,2.9065,2.9063,2.917,2.9097,2.9097,2.9096,2.9096,0,2.7774,2.7865,2.7972,2.8041,2.8144,2.8215,2.8316,2.8378,2.8463,2.8545,2.8592,2.8667,2.8751,2.8838,2.8891,2.9001,2.9026,2.906,2.9074,2.9058,2.9053,2.9095,2.9091,2.91,2.9099,2.9098,2.9098,0,2.7819,2.7894,2.8019,2.8139,2.8171,2.8242,2.8344,2.8412,2.8473,2.8576,2.8604,2.8699,2.8803,2.8878,2.9012,2.9048,2.9166,2.9178,2.9133,2.914,2.9187,2.9182,2.9326,2.9349,2.9259,2.926,2.926,0,2.7873,2.7944,2.8071,2.8129,2.8188,2.8282,2.8347,2.8419,2.8484,2.8602,2.8657,2.8764,2.8854,2.9018,2.9099,2.9202,2.9218,2.9262,2.9234,2.9216,2.9221,2.9216,2.9224,2.9266,2.9267,2.9267,2.9268,0,2.7961,2.7995,2.8087,2.8192,2.8268,2.8354,2.8441,2.8486,2.8574,2.8645,2.8752,2.8822,2.8959,2.9066,2.9176,2.9237,2.9268,2.9275,2.9293,2.9278,2.9249,2.9266,2.9146,2.9272,2.9272,2.9271,2.9271,2.9271,2.8014,2.8079,2.8179,2.828,2.8353,2.8433,2.8503,2.8572,2.8663,2.8781,2.8817,2.8929,2.9025,2.9177,2.9239,2.9327,2.9325,2.935,2.9357,2.9362,2.9362,2.9233,2.9347,2.9347,2.9347,2.9347,2.9347,0,2.8106,2.8172,2.8264,2.8384,2.8463,2.8484,2.8581,2.8646,2.8744,2.8831,2.8919,2.9042,2.9145,2.9233,2.934,2.9393,2.941,2.9419,2.9417,2.9431,2.9357,2.9332,2.9404,2.9404,2.9404,2.9404,2.9404,2.9404,2.8163,2.8276,2.8321,2.847,2.8535,2.8645,2.8699,2.8773,2.8843,2.8979,2.9065,2.9121,2.9209,2.9323,2.9418,2.9442,2.9479,2.9485,2.9512,2.9442,2.9436,2.9429,2.9406,2.9493,2.9493,2.9578,2.9579,2.958]},{"header":{"parameterUnit":"m.s-1","parameterCategory":1,"la1":30.2991,"la2":30.254,"lo1":-89.0895,"lo2":-89.0444,"dy":0.0017,"dx":0.0017,"nx":28,"ny":28,"refTime":"2024-11-24T09:00:00:Z","depth":0,"parameterNumber":3,"parameterNumberName":"V-component_of_WINDS"},"data":[0,0,0,0,0,0,0,0,0,0,0,0,0,0,0,0,0,0,0,0,0,0,0,0,0,0,0,0,0,0,0,0,0,0,0,0,0,0,0,0,0,0,0,0,0,0,0,0,0,0,0,0,0,0,0,0,0,0,0.3907,0.3907,0,0.3937,0.3938,0.3938,0.3968,0.3968,0.3969,0.3969,0.4,0.4,0.4001,0,0,0,0,0,0,0,0,0,0,0,0,0,0.3873,0.3874,0.3907,0.3907,0.3907,0.3937,0.3938,0.3938,0.3968,0.3968,0.3969,0.3969,0.4,0.4,0.4001,0,0,0,0,0,0,0,0,0,0,0,0,0,0.3894,0.3874,0.3907,0.3926,0.3928,0.3937,0.3938,0.3938,0.3968,0.3968,0.3969,0.397,0.3999,0.4,0.4001,0.3993,0,0,0.4003,0.4003,0,0,0,0,0,0,0,0,0.3893,0.3895,0.3923,0.3925,0.3927,0.3949,0.3937,0.3956,0.3968,0.3953,0.3969,0.397,0.3982,0.3985,0.3989,0.3994,0.3995,0.4003,0.4003,0.4003,0.4004,0,0,0,0,0,0,0,0.3891,0.3894,0.3919,0.3923,0.3926,0.3933,0.3936,0.3941,0.3964,0.3954,0.3956,0.396,0.3984,0.3988,0.399,0.3996,0.4003,0.4003,0.4004,0.4004,0.3996,0.3996,0,0,0,0,0,0,0.3887,0.3893,0.3918,0.392,0.3911,0.3933,0.3937,0.3942,0.3964,0.3968,0.3959,0.3961,0.3987,0.3989,0.3991,0.3984,0.4003,0.4004,0.4004,0.3997,0.3996,0.3996,0,0,0,0,0,0,0.3886,0.3889,0.3916,0.3907,0.3911,0.3933,0.3938,0.3942,0.3947,0.3968,0.3972,0.396,0.3987,0.399,0.3992,0.3985,0.4004,0.4005,0.3998,0.3997,0.3996,0.3969,0,0,0,0,0,0,0.3885,0.3889,0.3886,0.3907,0.3911,0.3917,0.3937,0.3942,0.3948,0.395,0.3969,0.3973,0.3988,0.3991,0.3993,0.3986,0.4005,0.3998,0.3997,0.3996,0.397,0.3967,0.3964,0,0,0,0,0,0.3884,0.3877,0.3886,0.3889,0.3909,0.3917,0.392,0.3937,0.3947,0.3945,0.3958,0.3972,0.3985,0.3991,0.3993,0.3987,0.3999,0.3998,0.3996,0.3972,0.3968,0.3964,0,0,0,0,0,0,0.3855,0.388,0.389,0.389,0.3901,0.3922,0.392,0.3932,0.3941,0.3943,0.3965,0.3969,0.3968,0.3978,0.3984,0.3981,0.3994,0.3993,0.3975,0.3971,0.3968,0.3966,0.4006,0,0,0,0,0,0.3849,0.3853,0.3875,0.3872,0.3878,0.3897,0.3902,0.3914,0.3927,0.3932,0.3946,0.3957,0.3964,0.3968,0.3975,0.3971,0.3976,0.3968,0.3965,0.3962,0.3961,0.3961,0.3957,0.3991,0.3991,0.3991,0,0,0.3835,0.385,0.3851,0.3867,0.3877,0.3882,0.3901,0.3905,0.3909,0.3932,0.3936,0.3946,0.396,0.3959,0.3959,0.3967,0.3953,0.3961,0.3958,0.3959,0.3959,0.3956,0.3953,0.399,0.399,0.3991,0,0,0.3814,0.3825,0.3824,0.3834,0.385,0.3863,0.3862,0.3881,0.3889,0.3893,0.3911,0.3915,0.3926,0.3935,0.3941,0.3923,0.3936,0.3924,0.3908,0.3907,0.3905,0.3902,0.3896,0.3894,0.3923,0.3923,0.3923,0,0.3796,0.3803,0.3822,0.3825,0.3832,0.3853,0.3852,0.3861,0.3878,0.3881,0.3889,0.3904,0.3915,0.3917,0.3912,0.3916,0.3917,0.3923,0.3903,0.3901,0.39,0.3894,0.3892,0.3922,0.3922,0.3922,0.3922,0,0.378,0.3785,0.3783,0.3799,0.3805,0.3806,0.3825,0.3828,0.384,0.3852,0.3855,0.3869,0.388,0.3881,0.3892,0.3884,0.3889,0.3899,0.3914,0.3895,0.389,0.3888,0.3919,0.392,0.392,0.3921,0,0,0.3743,0.3769,0.3768,0.3775,0.3793,0.3797,0.3799,0.381,0.3813,0.3823,0.3825,0.3834,0.3844,0.3851,0.3864,0.3863,0.3848,0.3874,0.3875,0.3869,0.384,0.3832,0.383,0.3856,0.3856,0.3855,0.3839,0,0.3725,0.373,0.3747,0.3747,0.3752,0.3772,0.3773,0.3784,0.3796,0.3801,0.3813,0.3819,0.3832,0.3837,0.3836,0.3849,0.3842,0.3851,0.3859,0.3859,0.3856,0.3827,0.3819,0.3803,0.3837,0.3837,0.3837,0,0.3705,0.3715,0.3715,0.3733,0.3736,0.3737,0.3748,0.3753,0.3766,0.3774,0.3782,0.3796,0.3798,0.3811,0.3815,0.3821,0.3825,0.3831,0.3831,0.3834,0.3847,0.3829,0.3798,0.3796,0.3834,0.3834,0.3834,0,0.3679,0.3691,0.3694,0.3699,0.372,0.372,0.3729,0.3742,0.3748,0.3757,0.3761,0.377,0.3775,0.3782,0.3798,0.3805,0.38,0.3814,0.3808,0.3807,0.3807,0.3807,0.3777,0.3807,0.3807,0.3808,0.3808,0,0.3658,0.3658,0.3682,0.3683,0.3683,0.3702,0.3702,0.3712,0.3724,0.3727,0.3745,0.3748,0.3768,0.3773,0.3786,0.3788,0.379,0.3797,0.38,0.3796,0.3795,0.3799,0.3801,0.3807,0.3807,0.3807,0.3807,0,0.3629,0.3645,0.3649,0.3668,0.3672,0.3672,0.3688,0.369,0.3702,0.3706,0.3708,0.3727,0.3734,0.375,0.3762,0.377,0.3769,0.3775,0.3765,0.3767,0.376,0.3761,0.3733,0.373,0.3761,0.3761,0.3761,0,0.3615,0.3615,0.3634,0.3638,0.3646,0.3652,0.3657,0.3675,0.368,0.3694,0.3695,0.3703,0.3711,0.3721,0.3735,0.3744,0.3751,0.374,0.3752,0.3748,0.3752,0.3752,0.3752,0.3738,0.3738,0.3737,0.3737,0,0.3589,0.3597,0.3604,0.3614,0.362,0.3629,0.3638,0.364,0.3661,0.3665,0.3673,0.3679,0.369,0.3698,0.3709,0.3718,0.3731,0.3733,0.3732,0.3728,0.3723,0.3726,0.3759,0.3734,0.3734,0.3734,0.3734,0.3735,0.3567,0.3569,0.3582,0.359,0.3599,0.3607,0.361,0.3622,0.3629,0.364,0.365,0.3657,0.3669,0.3685,0.3693,0.3698,0.3705,0.3703,0.3703,0.3702,0.3701,0.3721,0.37,0.37,0.37,0.37,0.37,0,0.3543,0.3553,0.3559,0.3572,0.3578,0.3589,0.36,0.3605,0.361,0.3621,0.3628,0.3637,0.3645,0.3659,0.3669,0.367,0.3676,0.3672,0.3672,0.3674,0.3694,0.3694,0.3667,0.3667,0.3667,0.3667,0.3667,0.3667,0.3531,0.3534,0.3543,0.3551,0.356,0.3567,0.3572,0.358,0.3589,0.3598,0.3604,0.3614,0.3626,0.3636,0.3644,0.3648,0.3651,0.3645,0.3651,0.367,0.3673,0.3676,0.3676,0.3645,0.3645,0.3631,0.3631,0.3631]}]]